Location: *
(42.1160°S, 166.9240°W)
Time: 17:33:33
(UTC+00:00)

Daily predictions for brighter satellites

Satellite Brightness Start Highest point End
(mag) Time Altitude Azimuth Time Altitude Azimuth Time Altitude Azimuth
Lacrosse 5 3.9 12:09:24 25° SSW 12:09:24 25° SSW 12:13:04 10° SSE
ATLAS 5 CENTAUR R/B 4.4 12:21:45 10° SSW 12:25:37 19° SSE 12:29:11 10° ESE
CZ-2D R/B 3.4 12:28:58 38° SSW 12:28:58 38° SSW 12:32:20 10° SSW
COSMOS 2406 4.1 12:42:39 45° SSW 12:42:39 45° SSW 12:46:57 10° SSE
Cosmos 2082 Rocket 3.7 12:42:47 28° E 12:42:47 28° E 12:46:49 10° SE
USA 267 3.3 12:44:51 10° SE 12:51:27 69° SW 12:51:31 69° SW
Cosmos 2154 Rocket 4.2 12:49:15 10° S 12:54:51 69° SSE 12:54:51 69° SSE
Nadezhda 1 Rocket 4.2 12:58:29 62° SSW 12:58:29 62° SSW 13:03:37 10° S
ATLAS CENTAUR R/B 3.5 12:59:01 28° SSW 12:59:01 28° SSW 13:01:55 10° SSE
ARIANE 5 R/B 4.1 13:17:18 26° SW 13:17:18 26° SW 13:19:47 10° SSW
Cosmos 2278 3.9 13:10:34 10° SSW 13:15:38 67° S 13:15:38 67° S
Resurs 1-4 Rocket 4.0 13:19:51 19° SW 13:19:51 19° SW 13:21:40 10° SW
ADEOS II 2.5 13:19:28 60° ESE 13:19:28 60° ESE 13:24:42 10° S
Cosmos 2181 Rocket 4.0 13:24:05 69° NE 13:24:36 73° E 13:31:02 10° SSE
Cosmos 962 Rocket 4.4 13:18:21 10° S 13:24:47 88° W 13:24:53 87° NNW
USA 234 3.3 13:19:12 10° NE 13:25:46 79° SE 13:32:24 10° SW
Meteor 2-16 Rocket 4.4 13:20:54 10° S 13:27:06 79° E 13:27:30 75° NE
Cosmos 2341 Rocket 3.8 13:21:41 10° S 13:28:01 86° W 13:28:03 86° WNW
Cosmos 468 Rocket 4.2 13:34:00 71° S 13:34:00 71° S 13:38:45 10° SSE
CZ-4C R/B 3.8 13:35:45 32° WSW 13:37:40 37° SW 13:43:58 10° SSE
Meteor 2-2 Rocket 4.4 13:33:46 10° S 13:39:54 80° E 13:40:55 63° NNE
Cosmos 1295 Rocket 4.3 13:34:46 10° SSW 13:41:01 73° W 13:41:03 73° W
Cosmos 2369 4.3 13:36:57 10° SSW 13:41:02 44° SW 13:41:02 44° SW
Okean O Rocket 3.7 13:40:34 11° ENE 13:44:06 26° ESE 13:47:52 10° S
Cosmos 1980 Rocket 3.0 13:38:48 10° SSW 13:44:23 51° ESE 13:49:57 10° NE
COSMOS 2487 4.3 13:46:40 30° SE 13:46:40 30° SE 13:48:45 10° SSE
Cosmos 2150 Rocket 4.2 13:41:02 10° SSW 13:46:33 72° ESE 13:47:44 53° NE
Cosmos 1626 3.7 13:48:29 33° S 13:48:29 33° S 13:50:41 10° S
SL-08 R/B 3.8 13:42:24 10° SSE 13:47:23 57° E 13:47:49 55° ENE
Cosmos 1833 Rocket 2.6 13:49:37 74° WSW 13:49:45 74° WSW 13:55:27 10° SSE
GEOS 3 Rocket 4.0 13:47:36 10° SSE 13:52:29 49° SW 13:52:40 49° SW
Cosmos 304 Rocket 4.3 13:55:38 51° SW 13:55:38 51° SW 13:59:53 10° S
Cosmos 1743 Rocket 4.2 13:58:03 50° ENE 13:58:32 52° E 14:02:57 10° SSE
ISS -1.0 14:01:17 14° ENE 14:01:17 14° ENE 14:01:54 10° ENE
Cosmos 1656 4.5 13:53:55 10° SW 13:57:32 36° WSW 13:57:32 36° WSW
Cosmos 1959 Rocket 4.4 13:54:22 10° S 14:00:37 89° W 14:02:42 45° N
CZ-4B R/B 4.1 13:58:20 10° SSW 13:59:07 14° SSW 13:59:07 14° SSW
Cosmos 1340 3.3 14:01:37 10° S 14:05:17 56° ESE 14:05:17 56° ESE
PSLV R/B 4.1 14:01:20 10° SSE 14:05:28 68° E 14:05:28 68° E
SL-8 Rocket 3.9 14:00:34 10° SSW 14:06:46 67° W 14:07:59 55° NW
Meteor 2-8 Rocket 4.3 14:05:32 56° NNW 14:06:55 81° W 14:13:08 10° S
Cosmos 1151 Rocket 3.6 14:02:52 10° S 14:07:13 56° E 14:08:31 39° NE
Cosmos 1814 Rocket 4.0 14:10:09 62° W 14:10:34 64° WSW 14:15:54 10° SSE
Cosmos 540 Rocket 4.1 14:09:18 36° NNE 14:11:00 50° ENE 14:16:04 10° SSE
ATLAS 5 CENTAUR R/B 1.7 14:05:51 10° SW 14:11:10 88° NW 14:14:07 23° NNE
Cosmos 292 Rocket 4.5 14:10:23 39° NNE 14:11:39 49° ENE 14:16:19 10° SSE
Meteor 1-11 4.1 14:11:56 58° NW 14:12:57 73° W 14:18:38 10° S
SL-16 R/B 4.0 14:08:20 10° S 14:13:26 31° SE 14:18:28 10° ENE
Tiangong 2 3.4 14:15:21 20° ENE 14:15:21 20° ENE 14:16:44 10° E
SJ 16-02 2.9 14:09:41 10° S 14:13:52 37° ESE 14:18:00 10° NE
SL-08 R/B 4.5 14:08:13 10° S 14:14:47 86° W 14:18:15 30° N
Cosmos 1697 Rocket 2.7 14:10:54 10° SSW 14:16:27 53° WNW 14:16:31 53° WNW
Meteor 1-31 Rocket 4.3 14:15:17 10° NE 14:18:56 36° ESE 14:22:39 10° S
SAR-Lupe-2 4.0 14:16:58 10° S 14:20:00 55° SSW 14:20:00 55° SSW
Meteor 1-27 4.1 14:15:50 10° SSW 14:21:27 68° W 14:23:06 45° NNW
Cosmos 1455 2.5 14:18:28 10° SSW 14:21:51 59° SW 14:21:51 59° SW
Cosmos 2151 2.8 14:23:39 74° NNW 14:24:00 83° W 14:28:19 10° S
MOS 1-B 4.3 14:22:23 43° NNW 14:24:11 61° WNW 14:30:00 10° SSW
PSLV R/B 3.5 14:24:38 64° WNW 14:24:40 64° W 14:29:04 10° SSW
Cosmos 2082 Rocket 2.8 14:24:39 38° W 14:25:47 42° WSW 14:31:16 10° SSE
SL-16 R/B 2.5 14:19:33 10° SSE 14:25:53 85° WSW 14:28:42 35° NNW
DELTA 2 R/B (1) 3.5 14:32:14 43° WNW 14:34:01 70° N 14:39:39 10° E
Cosmos 2058 3.1 14:39:29 48° W 14:39:40 48° WSW 14:43:46 10° S
Cosmos 1125 Rocket 3.7 14:36:03 10° SSW 14:41:25 74° ESE 14:46:40 10° NNE
Cosmos 1763 Rocket 4.3 14:41:24 32° W 14:42:35 35° WSW 14:47:32 10° S
Cosmos 2228 Rocket 3.3 14:38:20 10° SSW 14:42:45 52° W 14:43:37 45° NW
PSLV R/B 4.1 14:43:36 47° WNW 14:43:48 48° W 14:47:54 10° SSW
Cosmos 2360 4.3 14:44:27 10° SW 14:50:03 51° WNW 14:55:35 10° N
Cosmos 1461 4.2 14:46:55 10° SSW 14:50:35 38° SE 14:54:14 10° ENE
MOZ.5/SAFIR/RUBIN 5/SL-8 3.8 14:48:30 10° S 14:53:20 66° WSW 14:55:39 30° NNW
Abrixas rocket 4.0 14:51:51 15° SW 14:53:59 29° S 14:56:56 10° ESE
Cosmos 372 Rocket 3.9 14:49:44 10° SSW 14:54:58 84° WNW 15:00:07 10° NNE
CZ-4B R/B 3.7 14:57:09 34° WNW 14:57:43 35° W 15:01:53 10° SSW
ADEOS II 3.7 15:00:26 17° WSW 15:00:26 17° WSW 15:03:03 10° SW
Cosmos 841 Rocket 4.4 14:57:58 27° W 14:59:46 34° WSW 15:04:37 10° S
Cosmos 1821 Rocket 4.0 14:56:39 10° S 15:02:54 87° E 15:09:02 10° N
Cosmos 1515 Rocket 4.4 15:01:36 10° SSW 15:05:33 30° W 15:06:24 28° WNW
IRS-1C Rocket 4.1 15:03:48 10° N 15:09:02 66° WNW 15:14:21 10° SSW
USA 234 3.9 15:03:35 10° N 15:09:09 29° NW 15:14:47 10° WSW
ATLAS 2A CENTAUR R/B 4.0 15:05:02 19° NNW 15:09:14 31° NNE 15:22:33 10° ENE
Cosmos 1500 Rocket 4.4 15:09:23 27° WNW 15:10:46 33° WSW 15:14:51 10° S
USA 81 4.1 15:06:20 10° N 15:11:39 90° WSW 15:17:03 10° S
Cosmos 2322 Rocket 2.2 15:09:14 10° SSW 15:14:56 87° ESE 15:20:35 10° NNE
CZ-4B R/B 4.1 15:13:42 13° N 15:16:59 45° W 15:20:43 10° SSW
CZ-2C R/B 3.6 15:12:10 10° NE 15:17:09 49° ESE 15:22:06 10° S
ORS 1 (USA 231) 4.4 15:16:53 41° NNW 15:17:17 46° N 15:19:45 10° E
Okean O Rocket 2.4 15:18:02 20° NW 15:20:20 31° W 15:24:21 10° SW
deb Kosmos-1763 4.1 15:18:24 21° NNW 15:20:46 68° WSW 15:24:34 10° SSE
CZ-4B R/B 3.8 15:20:41 10° NNW 15:25:56 38° W 15:31:16 10° SSW
APEX 4.0 15:25:06 21° W 15:26:09 25° WSW 15:28:43 10° S
Cosmos 2360 Rocket 3.4 15:20:48 10° SSW 15:26:19 47° ESE 15:31:48 10° NE
Cosmos 1607 3.9 15:21:19 14° NNW 15:26:45 90° SSE 15:32:53 10° SSE
Cosmos 1980 Rocket 3.2 15:23:32 10° SW 15:28:01 24° W 15:32:28 10° NNW
GPS 2-04 Rocket1 3.7 15:26:40 20° NW 15:28:15 28° N 15:31:36 10° NE
Timation 2 Rocket 4.3 15:23:49 17° NW 15:28:38 54° WSW 15:35:07 10° SSE
Shenzhou-11 Module 2.1 15:30:24 18° W 15:32:34 76° S 15:35:39 10° E
ISS -2.4 15:34:06 19° WNW 15:34:53 21° NW 15:37:27 10° N
USA 161 4.2 15:32:45 10° SE 15:35:02 20° E 15:37:11 10° NE
Lacrosse 5 4.3 15:34:04 10° SSW 15:38:05 22° SSE 15:42:05 10° ESE
Cosmos 1892 2.8 15:41:31 10° N 15:45:22 81° E 15:49:20 10° S
Cosmos 1605 Rocket 4.1 15:41:25 10° S 15:47:55 85° W 15:54:14 10° N
Tiangong 2 1.1 15:47:36 13° W 15:50:27 89° S 15:53:43 10° E
DELTA 2 R/B(2) 4.2 15:49:39 16° WNW 15:50:59 34° N 15:53:37 10° ENE
SJ 16-02 2.6 15:48:51 10° SW 15:52:12 21° W 15:55:31 10° NW
Meteor 2-10 Rocket 4.3 15:48:00 10° SSW 15:53:10 36° W 15:58:06 10° NNW
Meteor 1-31 Rocket 4.4 15:50:49 10° NW 15:53:30 17° W 15:56:13 10° SW
SL-16 R/B 2.6 15:52:18 10° SW 15:57:37 41° WNW 16:02:53 10° N
SL-23 DEB 3.5 15:59:41 10° NW 16:02:52 72° NE 16:06:24 10° ESE
Cosmos 1933 3.8 16:04:13 10° SSW 16:08:12 44° W 16:12:08 10° NNW
SL-16 R/B 4.2 16:05:05 10° SSW 16:08:33 16° SW 16:12:00 10° W
Cosmos 1867 4.4 16:03:54 10° SSW 16:09:16 58° SE 16:14:35 10° NE
Okean-O 3.1 16:05:35 10° NNW 16:09:46 40° W 16:14:02 10° SSW
Sich 1 3.9 16:05:51 10° NW 16:09:54 33° WSW 16:13:57 10° S
Cosmos 192 4.4 16:07:12 10° NNW 16:12:07 72° WSW 16:17:06 10° SSE
